Location: SBMNH
(34.4407°N, 119.7157°W)
Time: 22:32:09
(UTC-07:00)

X-37B - Pass Details

Date: 21 August 2022
Orbit: 329 x 342 km, 45.0° (Epoch: 29 September)

Event Time Altitude Azimuth Distance (km) Brightness Sun altitude
Rises 21:48:57 0° 277° (W) 2,084 5.2 -25.0°
Reaches altitude 10° 21:51:25 10° 300° (WNW) 1,253 4.2 -25.4°
Enters shadow 21:52:42 15° 326° (NW) 993 3.4 -25.6°
